User: anonymous   Login
Location: Montague
(41.3030°N, 74.7940°W)
Time: 03:40:01
(UTC-04:00)
Language:

Cosmos 1461 - Orbit

View from above orbital plane
View from above orbital plane
View from above satellite
View from above satellite

Ground track
Ground track

The orbit data is extracted from the following two-line orbital elements,

1 14064U 83044A   16149.18257124  .00000548  00000-0  61885-4 0  9994
2 14064  65.0023  35.4352 0111301 207.0309 152.4984 14.92981128665862
Epoch (UTC): 28 May 2016 04:22:54
Eccentricity: 0.0111301
inclination: 65.0023°
perigee height: 511 km
apogee height: 666 km
right ascension of ascending node: 35.4352°
argument of perigee: 207.0309°
revolutions per day: 14.92981128
mean anomaly at epoch: 152.4984°
orbit number at epoch: 66586

The dashed part of the orbit path shows where the satellite is in the earth's shadow,  

DLR